Location: Newark
(49.8969°N, 3.3422°E)
Time: 22:36:23
(UTC+00:00)

deb Explorer IX - Pass Details

Date: 25 January 2020
Orbit: 549 x 1099 km, 38.8° (Epoch: 18 February)

Event Time Altitude Azimuth Distance (km) Brightness Sun altitude
Rises 21:09:25 0° 217° (SW) 3,739 - -44.3°
Reaches altitude 10° 21:12:38 10° 203° (SSW) 2,854 - -44.7°
Maximum altitude 21:17:50 22° 156° (SSE) 2,150 - -45.5°
Drops below altitude 10° 21:23:11 10° 108° (ESE) 2,949 - -46.2°
Sets 21:26:34 0° 95° (E) 3,895 - -46.7°
